Weather observations for the past three days for
Jasper Pickens County Airport
Imperial (Metric)
Date Time (edt) Wind (mph) Vis. (mi.) Weather Sky Cond. Temperature (ºF) Relative Humidity Wind Chill (°F) Heat Index (°F) Pressure Precipitation (in)
Air Dwpt 6 hour altimeter (in) sea level (mb) 1 hr 3 hr 6 hr
Max. Min.
24 01:55 Calm 7.00 Fair CLR 70.5 70 72.5 70.3 98% 30.21 0.0 0.02
24 01:35 Calm 7.00 Fair CLR 70.7 70.2 98% 30.21 0.0
24 01:15 Calm 4.00 Fog/Mist CLR 70.5 70 98% 30.21 0.0
24 00:55 Calm 7.00 Fair CLR 70.9 70.3 98% 30.21 0.0
24 00:35 Calm 10.00 Partly Cloudy SCT009 71.1 70.2 97% 30.2 0.0
24 00:15 Calm 10.00 Mostly Cloudy SCT005 BKN009 71.2 70.2 96% 30.21 0.0
23 23:55 Calm 10.00 Overcast BKN002 OVC007 71.6 70.7 97% 30.21 0.0
23 23:35 SE 5 7.00 Fog/Mist OVC002 71.6 71.1 98% 30.21 0.0
23 23:15 E 6 7.00 Overcast BKN004 OVC008 71.8 71.1 98% 30.21 0.0
23 22:55 SE 3 10.00 Overcast BKN004 OVC110 71.8 71.2 98% 30.22 0.0 0.02
23 22:35 SE 3 7.00 Overcast OVC004 71.4 70.7 98% 30.21 0.0
23 22:15 S 3 7.00 Overcast BKN002 OVC017 71.2 70.7 98% 30.21 0.0
23 21:55 Calm 3.50 Fog/Mist OVC002 71.2 70.9 99% 30.2 0.0
23 21:35 S 3 5.00 Fog/Mist OVC002 71.2 70.9 99% 30.2 0.0
23 21:15 SE 5 5.00 Fog/Mist OVC002 71.6 71.1 98% 30.2 0.0
23 20:55 SE 3 7.00 Fog/Mist OVC004 71.4 70.9 98% 30.19 0.0 0.02
23 20:35 S 3 7.00 Mostly Cloudy BKN004 BKN038 BKN120 72.1 71.4 98% 30.19 0.0 0.02
23 20:15 SE 3 7.00 Light Rain Fog/Mist SCT008 BKN080 OVC090 72 71.1 97% 30.18 0.0 0.02
23 19:55 SE 3 3.50 Rain Fog/Mist SCT011 BKN080 OVC090 72.1 71.2 86.9 70.9 97% 30.19 0.0 0.06 0.28
23 19:35 Calm 5.00 Light Rain Fog/Mist SCT005 BKN070 OVC075 72 70.9 96% 30.19 0.0 0.02
23 19:15 Calm 7.00 Light Rain Fog/Mist SCT004 BKN007 OVC070 72.5 71.1 95% 30.18 0.0
23 18:55 SW 3 10.00 Thunderstorm in Vicinity BKN007 BKN038 BKN120 72.5 70.9 95% 30.17 0.0
23 18:35 N 7 10.00 Overcast SCT005 BKN070 OVC100 73 70.7 92% 30.14 0.0
23 18:15 N 5 10.00 Overcast SCT050 SCT070 OVC100 72.9 71.2 95% 30.14 0.0
23 17:55 NW 8 10.00 Light Rain SCT040 BKN060 OVC070 72 70.7 96% 30.14 0.0 0.01
23 17:35 NW 6 10.00 Light Rain BKN037 BKN046 OVC060 72 70.3 95% 30.14 0.0
23 17:15 NW 7 10.00 Light Rain SCT031 BKN049 BKN060 71.8 70.3 95% 30.13 0.0
23 16:55 N 10 10.00 Light Rain SCT019 BKN025 OVC095 71.6 70.7 97% 30.14 0.0 0.02 0.21
23 16:15 NE 3 10.00 Thunderstorm Light Rain in Vicinity SCT021 BKN048 OVC070 72.1 69.8 92% 30.14 0.0
23 15:55 N 13 G 17 2.50 Heavy Rain Fog/Mist SCT020 BKN036 OVC055 72.3 69.4 91% 30.14 0.0 0.19
23 15:35 S 9 10.00 Thunderstorm in Vicinity SCT030 SCT035 BKN048 82.4 70.5 67% 87 30.12 0.0
23 15:15 S 3 10.00 Partly Cloudy SCT038 SCT050 SCT080 83.5 68.4 60% 87 30.12 0.0
23 14:55 S 6 10.00 Mostly Cloudy BKN038 BKN050 85.5 69.3 58% 90 30.13 0.0
23 14:35 SW 3 10.00 Overcast BKN035 OVC042 84.4 70.2 62% 89 30.13 0.0
23 14:15 S 5 10.00 Mostly Cloudy SCT035 BKN041 BKN048 83.3 69.1 62% 87 30.14 0.0
23 13:55 S 3 10.00 Mostly Cloudy SCT034 SCT040 BKN050 83.5 68.5 84.7 73 61% 87 30.15 0.0
23 13:35 S 7 10.00 Mostly Cloudy SCT028 BKN034 BKN045 84 68.5 60% 87 30.16 0.0
23 13:15 Calm 10.00 Mostly Cloudy SCT028 SCT034 BKN045 82 69.3 65% 86 30.17 0.0
23 12:55 Calm 10.00 Fair CLR 80.8 68.2 66% 84 30.17 0.0
23 12:35 W 3 10.00 Mostly Cloudy BKN020 BKN030 BKN047 80.4 70 71% 84 30.17 0.0
23 12:15 W 5 10.00 Mostly Cloudy BKN018 80.4 70.9 73% 84 30.17 0.0
23 11:55 W 5 10.00 Mostly Cloudy BKN016 78.1 71.1 79% 80 30.18 0.0
23 11:35 N 6 10.00 Partly Cloudy SCT016 SCT034 SCT047 79 70.7 76% 82 30.18 0.0
23 11:15 W 3 10.00 Mostly Cloudy SCT010 SCT022 BKN043 77.4 70.9 81% 79 30.18 0.0
23 10:55 W 5 10.00 Mostly Cloudy BKN010 BKN028 76.5 71.4 84% 77 30.18 0.0
23 10:35 Calm 10.00 Overcast OVC010 75.6 71.2 87% 76 30.18 0.0
23 10:15 Calm 10.00 Mostly Cloudy BKN010 BKN033 75.7 71.6 87% 76 30.17 0.0
23 09:55 W 3 10.00 Mostly Cloudy BKN010 BKN019 BKN039 74.8 70.9 88% 30.17 0.0
23 09:35 Calm 10.00 Mostly Cloudy BKN012 BKN033 74.5 71.6 91% 30.17 0.0
23 09:15 S 3 10.00 Overcast OVC010 74.1 71.2 91% 30.16 0.0
23 08:55 SW 3 10.00 Overcast OVC012 73.9 71.1 91% 30.15 0.0
23 08:35 W 3 10.00 Partly Cloudy SCT008 SCT012 73.6 70.9 91% 30.15 0.0
23 08:15 Calm 10.00 Fair CLR 73.4 70.3 90% 30.14 0.0
23 07:55 W 3 10.00 Mostly Cloudy BKN013 73 70.2 73.6 71.2 91% 30.14 0.0
23 07:35 Calm 10.00 Overcast OVC013 72.3 70.3 94% 30.14 0.0
23 07:15 Calm 10.00 Overcast OVC013 72.3 70.7 95% 30.14 0.0
23 06:55 Calm 10.00 Overcast OVC013 71.4 70.5 97% 30.14 0.0
23 06:35 Calm 10.00 Overcast OVC013 71.8 70.3 95% 30.14 0.0
23 06:15 Calm 10.00 Overcast OVC011 72 70.5 95% 30.13 0.0
23 05:55 Calm 10.00 Overcast OVC011 72 70.7 96% 30.13 0.0
23 05:35 Calm 10.00 Overcast OVC011 72.3 70.7 95% 30.12 0.0
23 05:15 Calm 10.00 Overcast BKN013 OVC055 72.3 70.7 95% 30.12 0.0
23 04:55 Calm 10.00 Mostly Cloudy SCT009 SCT013 BKN055 72.7 70.3 92% 30.12 0.0
23 04:35 SE 3 10.00 Overcast SCT009 BKN023 OVC055 72.5 70.9 95% 30.11 0.0
23 04:15 Calm 10.00 Overcast SCT011 BKN023 OVC065 72.9 70.5 92% 30.11 0.0
23 03:55 W 3 10.00 Overcast SCT013 SCT020 OVC065 72.9 70.3 92% 30.1 0.0
23 03:35 Calm 10.00 Overcast BKN013 OVC020 73 70.5 92% 30.11 0.0
23 03:15 SW 5 10.00 Overcast BKN015 OVC019 73.2 70.5 91% 30.11 0.0
23 02:55 Calm 10.00 Overcast SCT015 BKN022 OVC042 73.4 70.5 91% 30.11 0.0
23 02:35 Calm 10.00 Overcast SCT017 BKN032 OVC041 73 70.9 93% 30.12 0.0
23 02:15 Calm 10.00 Overcast BKN029 OVC035 73 70.9 93% 30.12 0.0
23 01:55 S 3 10.00 Overcast BKN023 OVC028 73 70.9 79.3 72.3 93% 30.12 0.0 0.05
23 01:35 S 3 10.00 Mostly Cloudy SCT023 BKN028 BKN034 72.9 70.9 94% 30.12 0.0
23 01:15 SW 3 10.00 Partly Cloudy SCT026 72.5 70.9 95% 30.12 0.0
23 00:55 Calm 10.00 Mostly Cloudy SCT024 SCT030 BKN037 73 71.2 94% 30.11 0.0
23 00:35 Calm 10.00 Mostly Cloudy SCT026 SCT030 BKN035 72.7 71.2 95% 30.11 0.0
23 00:15 Calm 10.00 Overcast BKN030 OVC037 73.2 71.4 94% 30.11 0.0
22 23:55 Calm 7.00 Light Rain Fog/Mist BKN027 BKN032 OVC045 73.2 72 96% 30.11 0.0 0.05
22 23:35 Calm 10.00 Overcast SCT025 BKN035 OVC080 73.9 71.8 93% 30.11 0.0
22 23:15 Calm 10.00 Overcast SCT025 SCT036 OVC046 74.1 71.6 92% 30.11 0.0
22 22:55 Calm 10.00 Partly Cloudy SCT050 73.9 72.1 94% 30.11 0.0
22 22:35 Calm 10.00 Fair CLR 75.2 70.5 85% 75 30.1 0.0
22 22:15 Calm 10.00 Partly Cloudy SCT039 SCT080 75.4 69.6 82% 76 30.09 0.0
22 21:55 Calm 10.00 Mostly Cloudy SCT033 BKN041 BKN050 75.4 69.8 83% 76 30.09 0.0
22 21:35 SE 5 10.00 Mostly Cloudy SCT033 BKN055 75.4 69.8 83% 76 30.09 0.0
22 21:15 Calm 10.00 Mostly Cloudy BKN065 76.5 70 80% 78 30.08 0.0
22 20:55 Calm 10.00 Partly Cloudy SCT065 76.6 69.8 79% 78 30.08 0.0
22 20:35 Calm 10.00 Fair CLR 77.9 69.3 75% 80 30.07 0.0
22 20:15 Calm 10.00 Fair CLR 78.6 68.9 72% 81 30.07 0.0
22 19:55 Calm 10.00 Partly Cloudy SCT120 78.8 68.9 83.1 76.8 72% 81 30.06 0.0
22 19:35 SW 5 10.00 Mostly Cloudy BKN120 78.8 70.9 77% 82 30.06 0.0
22 19:15 SW 5 10.00 Mostly Cloudy SCT060 BKN110 79 71.6 78% 82 30.05 0.0
22 18:55 W 7 10.00 Mostly Cloudy BKN060 BKN070 BKN110 79.5 71.8 77% 83 30.05 0.0
22 18:35 W 7 10.00 Mostly Cloudy SCT070 BKN080 79.7 71.4 76% 83 30.05 0.0
22 18:15 W 7 10.00 Overcast SCT036 BKN070 OVC080 77.2 72.1 85% 79 30.05 0.0
22 17:55 SW 3 10.00 Overcast BKN034 BKN041 OVC048 80.1 70.9 74% 84 30.05 0.0
22 17:35 Calm 10.00 Mostly Cloudy SCT034 BKN050 BKN110 81.3 69.8 68% 85 30.04 0.0
22 17:15 S 5 10.00 Mostly Cloudy SCT028 BKN050 BKN070 81.1 69.8 69% 85 30.05 0.0
22 16:55 SW 6 10.00 Mostly Cloudy SCT025 SCT033 BKN100 81.9 69.6 67% 85 30.06 0.0
22 16:35 S 3 10.00 Mostly Cloudy SCT035 SCT049 BKN060 82.4 70 66% 86 30.05 0.0
22 16:15 S 5 10.00 Mostly Cloudy SCT035 SCT040 BKN060 81 69.3 68% 84 30.06 0.0
22 15:55 S 7 10.00 Mostly Cloudy SCT033 BKN040 BKN046 82.4 69.4 65% 86 30.07 0.0
22 15:35 SW 5 10.00 Partly Cloudy SCT031 BKN043 SCT095 82.9 70 65% 87 30.08 0.0
22 15:15 SW 6 10.00 Mostly Cloudy SCT029 BKN034 BKN042 82.2 69.3 65% 86 30.09 0.0
22 14:55 SW 3 10.00 Mostly Cloudy SCT029 BKN037 BKN043 81.1 68.7 66% 84 30.09 0.0
22 14:35 S 5 10.00 Partly Cloudy SCT027 SCT037 SCT055 80.6 68.9 68% 84 30.1 0.0
22 14:15 SW 5 10.00 Partly Cloudy SCT024 SCT029 SCT055 80.4 68.9 68% 83 30.1 0.0
22 13:55 W 7 10.00 Partly Cloudy SCT024 SCT031 SCT070 79.9 69.6 81.3 70.9 71% 83 30.11 0.0
22 13:35 SW 3 10.00 Mostly Cloudy SCT027 SCT032 BKN039 79.2 68.2 69% 82 30.11 0.0
22 13:15 W 6 10.00 Mostly Cloudy SCT025 BKN032 BKN039 80.6 69.6 69% 84 30.12 0.0
22 12:55 W 5 10.00 Mostly Cloudy SCT022 BKN032 79.7 69.3 71% 83 30.12 0.0
22 12:35 SW 5 10.00 Mostly Cloudy BKN022 BKN030 78.1 70 76% 80 30.12 0.0
22 12:15 S 6 10.00 Mostly Cloudy SCT020 BKN025 77.9 69.1 74% 80 30.12 0.0
22 11:55 NW 5 10.00 Overcast BKN020 OVC029 77 68.7 76% 79 30.13 0.0
22 11:35 W 6 10.00 Mostly Cloudy BKN020 BKN029 BKN055 76.5 68.5 77% 78 30.13 0.0
22 11:15 NW 5 10.00 Mostly Cloudy BKN020 75.7 68.2 77% 77 30.13 0.0
22 10:55 W 6 10.00 Overcast BKN020 OVC025 75.7 68 77% 77 30.13 0.0
22 10:35 W 5 10.00 Mostly Cloudy BKN014 BKN020 BKN045 74.7 68 80% 30.12 0.0
22 10:15 W 6 10.00 Mostly Cloudy BKN014 BKN034 BKN075 74.3 68.4 82% 30.12 0.0
22 09:55 W 5 10.00 Overcast BKN014 BKN020 OVC060 73.4 68.2 84% 30.12 0.0
22 09:35 W 9 10.00 Overcast OVC014 73.2 68.2 84% 30.12 0.0
22 09:15 W 7 10.00 Overcast OVC014 72.9 68.7 87% 30.12 0.0
22 08:55 W 6 10.00 Overcast SCT003 SCT008 OVC014 71.8 69.3 92% 30.11 0.0
22 08:35 Calm 10.00 Overcast BKN005 BKN014 OVC050 71.1 70 96% 30.11 0.0
22 08:15 Calm 10.00 Overcast BKN005 BKN037 OVC049 71.1 69.6 95% 30.11 0.0
22 07:55 E 3 10.00 Overcast SCT003 SCT007 OVC049 71.1 69.8 72.1 69.6 96% 30.1 0.0
22 07:35 Calm 10.00 Overcast SCT003 SCT034 OVC049 70.2 69.3 97% 30.09 0.0
22 07:15 Calm 10.00 Overcast SCT009 BKN032 OVC049 70 69.1 97% 30.09 0.0
22 06:55 SW 3 5.00 Fog/Mist SCT003 BKN009 OVC021 69.8 69.1 98% 30.09 0.0
22 06:35 Calm 10.00 Overcast SCT003 BKN011 OVC045 69.8 68.9 97% 30.09 0.0
22 06:15 Calm 10.00 Overcast SCT003 BKN031 OVC043 69.8 69.1 98% 30.09 0.0
22 05:55 Calm 10.00 Overcast SCT003 BKN014 OVC032 69.8 69.1 98% 30.09 0.0
22 05:35 Calm 10.00 Overcast SCT008 OVC020 70 68.9 96% 30.08 0.0
22 05:15 Calm 10.00 Mostly Cloudy BKN008 BKN045 69.8 68.9 97% 30.07 0.0
22 04:55 Calm 10.00 Mostly Cloudy SCT010 SCT034 BKN047 70.3 68.7 95% 30.07 0.0
22 04:35 Calm 10.00 Overcast BKN010 OVC034 70.5 68.9 95% 30.07 0.0
22 04:15 S 3 10.00 Overcast OVC010 70.7 69.1 95% 30.07 0.0
22 03:55 S 3 10.00 Overcast OVC010 70.7 69.1 95% 30.08 0.0
22 03:35 Calm 10.00 Overcast OVC010 70.9 69.1 94% 30.08 0.0
22 03:15 Calm 10.00 Overcast OVC008 71.1 69.1 94% 30.09 0.0
22 02:55 S 3 10.00 Overcast OVC010 71.6 69.3 92% 30.1 0.0
22 02:35 SE 3 10.00 Mostly Cloudy SCT012 SCT048 BKN120 71.2 69.3 94% 30.11 0.0
22 02:15 E 3 10.00 Partly Cloudy SCT006 SCT048 SCT120 72.1 69.6 92% 30.11 0.0
22 01:55 SE 3 10.00 Mostly Cloudy BKN090 BKN120 72 69.3 78.6 71.6 91% 30.11 0.0
22 01:35 SE 6 10.00 Mostly Cloudy SCT100 BKN120 71.8 69.3 92% 30.11 0.0
22 01:15 SE 5 10.00 Partly Cloudy SCT100 SCT120 72.1 69.6 92% 30.11 0.0
22 00:55 SE 8 10.00 Mostly Cloudy SCT036 SCT042 BKN090 72.9 69.8 90% 30.11 0.0
22 00:35 SE 8 10.00 Mostly Cloudy SCT003 SCT010 BKN090 73.2 70.2 90% 30.11 0.0
22 00:15 SE 7 10.00 Overcast BKN003 OVC010 73.4 71.8 95% 30.12 0.0
21 23:55 SE 7 10.00 Overcast SCT003 BKN007 OVC016 73.8 72.3 95% 30.12 0.0
21 23:35 S 5 10.00 Overcast BKN008 OVC015 74.1 72.1 94% 30.12 0.0
21 23:15 SE 5 10.00 Overcast OVC010 74.5 72.5 94% 30.12 0.0
21 22:55 SE 3 10.00 Mostly Cloudy BKN012 BKN020 BKN027 74.8 72.5 92% 30.12 0.0
21 22:35 SE 7 10.00 Mostly Cloudy BKN014 BKN022 BKN027 75.9 72.5 89% 76 30.11 0.0
21 22:15 S 5 10.00 Overcast BKN016 OVC020 75.9 72.7 90% 76 30.11 0.0
21 21:55 S 3 10.00 Overcast BKN016 OVC020 75.7 72.7 90% 75 30.11 0.0
21 21:35 S 5 10.00 Overcast BKN018 OVC025 76.5 72.7 88% 77 30.1 0.0
21 21:15 S 3 10.00 Overcast SCT020 OVC027 76.5 72.9 89% 77 30.09 0.0
21 20:55 W 3 10.00 Overcast BKN029 OVC035 76.8 72.9 88% 78 30.08 0.0
21 20:35 SE 3 10.00 Overcast BKN034 OVC110 77.2 72.7 86% 79 30.07 0.0
21 20:15 Calm 10.00 Overcast SCT028 OVC110 78.1 72.3 83% 81 30.08 0.0
21 19:55 Calm 10.00 Mostly Cloudy SCT029 SCT039 BKN100 78.4 72.3 83.1 78.4 82% 81 30.07 0.0
21 19:35 SW 3 10.00 Partly Cloudy SCT027 SCT043 SCT100 78.8 72.1 80% 82 30.06 0.0
21 19:15 S 3 10.00 Mostly Cloudy SCT024 SCT029 BKN100 79.3 71.6 77% 83 30.06 0.0
21 18:55 SW 3 10.00 Mostly Cloudy SCT026 SCT032 BKN050 80.4 72.3 76% 85 30.06 0.0
21 18:35 SE 6 10.00 Partly Cloudy SCT100 81.7 71.1 70% 86 30.05 0.0
21 18:15 SW 3 10.00 Partly Cloudy SCT100 81.7 72.3 73% 87 30.06 0.0
21 17:55 S 5 10.00 Mostly Cloudy BKN110 80.8 73.2 78% 86 30.05 0.0
21 17:35 S 5 10.00 Partly Cloudy SCT110 80.1 72 76% 84 30.05 0.0
21 17:15 S 5 10.00 Fair CLR 81 71.6 73% 85 30.05 0.0
21 16:55 S 6 10.00 Fair CLR 80.8 72.5 76% 85 30.05 0.0
21 16:35 SE 6 10.00 Fair CLR 80.2 72.3 77% 84 30.06 0.0
21 16:15 SE 6 10.00 Fair CLR 81 71.1 72% 85 30.06 0.0
21 15:55 SE 6 10.00 Fair CLR 81 72.5 76% 86 30.07 0.0
21 15:35 S 5 10.00 Partly Cloudy SCT023 SCT080 80.6 70.7 72% 84 30.07 0.0
21 15:15 SW 3 10.00 Partly Cloudy SCT080 81.1 71.2 72% 85 30.08 0.0
21 14:55 S 3 10.00 Partly Cloudy SCT031 SCT037 81.1 71.4 72% 85 30.09 0.0
21 14:35 Calm 10.00 Mostly Cloudy SCT024 BKN032 81.3 71.1 71% 85 30.09 0.0
21 14:15 S 6 10.00 Partly Cloudy SCT020 SCT035 SCT055 81.5 71.8 72% 86 30.09 0.0
21 13:55 Calm 10.00 Overcast BKN022 OVC035 80.8 72.5 81.1 72 76% 85 30.1 0.0 0.01
21 13:35 Calm 10.00 Overcast OVC022 79.2 70.9 76% 82 30.11 0.0
21 13:15 E 5 10.00 Mostly Cloudy SCT012 BKN016 BKN022 80.6 70.5 71% 84 30.11 0.0
21 12:55 S 5 10.00 Mostly Cloudy SCT011 BKN021 BKN032 77.7 72.3 84% 80 30.12 0.0
21 12:35 SE 5 10.00 Overcast SCT015 BKN029 OVC040 76.6 72.5 87% 78 30.13 0.0
21 12:15 S 6 10.00 Mostly Cloudy SCT013 BKN039 BKN090 76.5 72.7 88% 77 30.13 0.0
21 11:55 N 5 10.00 Mostly Cloudy SCT030 SCT040 BKN065 77 71.1 82% 79 30.13 0.0
21 11:35 Calm 10.00 Mostly Cloudy SCT011 BKN033 BKN050 77.4 72 84% 79 30.13 0.0
21 11:15 Calm 10.00 Mostly Cloudy SCT011 SCT017 BKN037 76.6 72 86% 78 30.13 0.0
21 10:55 NW 5 10.00 Mostly Cloudy SCT012 SCT018 BKN033 75.2 72.3 91% 74 30.13 0.0 0.01
21 10:35 SW 3 10.00 Overcast SCT007 BKN020 OVC026 74.7 71.8 91% 30.13 0.0
21 10:15 W 5 10.00 Overcast SCT008 BKN020 OVC030 75.2 72.1 90% 74 30.13 0.0
21 09:55 NW 3 10.00 Light Rain SCT008 BKN012 OVC024 73.6 71.4 93% 30.13 0.0 0.01
21 09:35 W 5 10.00 Overcast SCT006 BKN010 OVC023 74.5 72 92% 30.13 0.0
21 09:15 W 7 10.00 Overcast BKN006 OVC012 73.2 72 96% 30.13 0.0
21 08:55 Calm 10.00 Overcast OVC008 73.4 72 95% 30.13 0.0
21 08:35 W 3 10.00 Overcast OVC008 72.9 72 97% 30.13 0.0
21 08:15 Calm 7.00 Overcast SCT003 OVC009 72.3 71.6 98% 30.13 0.0
21 07:55 Calm 7.00 Light Rain OVC003 72 71.4 72.9 71.8 98% 30.12 0.0 0.01 0.24
21 07:35 Calm 7.00 Fog/Mist OVC003 72 71.4 98% 30.12 0.0 0.01
21 07:15 Calm 4.00 Light Rain Fog/Mist BKN003 OVC010 71.8 71.4 99% 30.12 0.0 0.01
21 06:55 S 3 7.00 Fog/Mist BKN003 OVC010 72 71.2 98% 30.11 0.0
21 06:35 S 3 10.00 Overcast SCT005 OVC010 71.8 71.1 98% 30.11 0.0
21 06:15 Calm 7.00 Light Rain Fog/Mist BKN006 OVC012 71.8 71.2 98% 30.11 0.0
21 05:55 Calm 10.00 Overcast OVC004 71.8 71.2 98% 30.11 0.0
21 05:35 Calm 10.00 Overcast OVC004 71.8 71.2 98% 30.1 0.0
21 05:10 Calm 10.00 Overcast OVC004 71.8 71.2 98% 30.1 0.0
21 04:55 S 3 10.00 Overcast OVC004 71.8 71.2 98% 30.1 0.0 0.01 0.23
21 04:35 SW 5 10.00 Overcast OVC004 72 71.2 98% 30.1 0.0 0.01
21 04:15 S 6 10.00 Overcast OVC004 72 71.2 98% 30.1 0.0 0.01
21 03:55 S 6 10.00 Overcast BKN004 OVC007 72 71.4 98% 30.11 0.0
21 03:35 S 3 7.00 Overcast OVC002 72.1 71.6 98% 30.11 0.0
21 03:15 S 3 5.00 Fog/Mist OVC002 72.1 71.8 99% 30.11 0.0
21 02:55 SE 9 7.00 Overcast OVC004 72.3 71.8 98% 30.11 0.0 0.22
21 02:35 SE 7 5.00 Light Rain Fog/Mist OVC004 72.7 72.1 98% 30.11 0.0 0.22
21 02:15 E 3 1.75 Heavy Rain Fog/Mist OVC002 72.5 72 98% 30.12 0.0 0.1
Date Time (edt) Wind (mph) Vis. (mi.) Weather Sky Cond. Air Dwpt Max. Min. Relative Humidity Wind Chill (°F) Heat Index (°F) altimeter (in) sea level (mb) 1 hr 3 hr 6 hr
6 hour
Temperature (ºF) Pressure Precipitation (in)